Location: Bremen
(53.0793°N, 8.8017°E)
Time: 19:07:41
(UTC+01:00)

Vanguard 1 Rocket - Pass Details

Date: 07 December 2021
Orbit: 651 x 4224 km, 34.3° (Epoch: 24 January)

Event Time Altitude Azimuth Distance (km) Brightness Sun altitude
Rises 05:58:47 0° 259° (W) 5,421 - -20.5°
Reaches altitude 10° 06:02:10 10° 251° (WSW) 4,839 - -20.0°
Exits shadow 06:03:34 14° 247° (WSW) 4,648 10.5 -19.8°
Maximum altitude 06:15:05 35° 192° (SSW) 4,416 10.8 -18.1°
Drops below altitude 10° 06:34:56 10° 138° (SE) 7,323 12.9 -15.2°
Sets 06:41:49 0° 131° (SE) 8,463 13.7 -14.2°
